owner,sensor,date,latitude,longitude,air_temperature,qcFlag 
NDBC,ioos:station:wmo:42003:1,2014-10-15T23:50:00Z,26.0070,-85.6480,25.3,1111122 
NDBC,ioos:station:wmo:42003:1,2014-10-16T00:50:00Z,26.0070,-85.6480,25.1,1111122 
NDBC,ioos:station:wmo:42003:1,2014-10-16T01:50:00Z,26.0070,-85.6480,25.0,1111122 
NDBC,ioos:station:wmo:42003:1,2014-10-16T02:50:00Z,26.0070,-85.6480,25.0,1111122 
NDBC,ioos:station:wmo:42003:1,2014-10-16T03:50:00Z,26.0070,-85.6480,24.8,1111122 
NDBC,ioos:station:wmo:42003:1,2014-10-16T04:50:00Z,26.0070,-85.6480,24.7,1111122 
NDBC,ioos:station:wmo:42003:1,2014-10-16T05:50:00Z,26.0070,-85.6480,24.7,1111122 
NDBC,ioos:station:wmo:42003:1,2014-10-16T06:50:00Z,26.0070,-85.6480,24.5,1111122 
NDBC,ioos:station:wmo:42003:1,2014-10-16T07:50:00Z,26.0070,-85.6480,24.4,1111122 
NDBC,ioos:station:wmo:42003:1,2014-10-16T08:50:00Z,26.0070,-85.6480,24.3,1111122 
NDBC,ioos:station:wmo:42003:1,2014-10-16T09:50:00Z,26.0070,-85.6480,24.4,1111122 
NDBC,ioos:station:wmo:42003:1,2014-10-16T10:50:00Z,26.0070,-85.6480,24.4,1111122 
NDBC,ioos:station:wmo:42003:1,2014-10-16T11:50:00Z,26.0070,-85.6480,24.3,1111122 
NDBC,ioos:station:wmo:42003:1,2014-10-16T12:50:00Z,26.0070,-85.6480,24.7,1111122 
NDBC,ioos:station:wmo:42003:1,2014-10-16T13:50:00Z,26.0070,-85.6480,24.7,1111122 
NDBC,ioos:station:wmo:42003:1,2014-10-16T14:50:00Z,26.0070,-85.6480,24.8,1111122 
NDBC,ioos:station:wmo:42003:1,2014-10-16T15:50:00Z,26.0070,-85.6480,24.8,1111122 
NDBC,ioos:station:wmo:42003:1,2014-10-16T16:50:00Z,26.0070,-85.6480,25.0,1111122 
NDBC,ioos:station:wmo:42003:1,2014-10-16T17:50:00Z,26.0070,-85.6480,25.0,1111122 
NDBC,ioos:station:wmo:42003:1,2014-10-16T18:50:00Z,26.0070,-85.6480,25.1,1111122 
NDBC,ioos:station:wmo:42003:1,2014-10-16T19:50:00Z,26.0070,-85.6480,25.2,1111122 
NDBC,ioos:station:wmo:42003:1,2014-10-16T20:50:00Z,26.0070,-85.6480,25.3,1111122 
NDBC,ioos:station:wmo:42003:1,2014-10-16T21:50:00Z,26.0070,-85.6480,25.4,1111122 
NDBC,ioos:station:wmo:42003:1,2014-10-16T22:50:00Z,26.0070,-85.6480,25.4,1111122 
NDBC,ioos:station:wmo:42003:1,2014-10-16T23:50:00Z,26.0070,-85.6480,25.2,1111122 
NDBC,ioos:station:wmo:42003:1,2014-10-17T00:50:00Z,26.0070,-85.6480,25.2,1111122 
NDBC,ioos:station:wmo:42003:1,2014-10-17T01:50:00Z,26.0070,-85.6480,25.2,1111122 
NDBC,ioos:station:wmo:42003:1,2014-10-17T02:50:00Z,26.0070,-85.6480,25.2,1111122 
NDBC,ioos:station:wmo:42003:1,2014-10-17T03:50:00Z,26.0070,-85.6480,25.2,1111122 
NDBC,ioos:station:wmo:42003:1,2014-10-17T04:50:00Z,26.0070,-85.6480,25.2,1111122 
NDBC,ioos:station:wmo:42003:1,2014-10-17T05:50:00Z,26.0070,-85.6480,25.1,1111122 
NDBC,ioos:station:wmo:42003:1,2014-10-17T06:50:00Z,26.0070,-85.6480,24.9,1111122 
NDBC,ioos:station:wmo:42003:1,2014-10-17T07:50:00Z,26.0070,-85.6480,24.9,1111122 
NDBC,ioos:station:wmo:42003:1,2014-10-17T08:50:00Z,26.0070,-85.6480,24.8,1111122 
NDBC,ioos:station:wmo:42003:1,2014-10-17T09:50:00Z,26.0070,-85.6480,24.8,1111122 
NDBC,ioos:station:wmo:42003:1,2014-10-17T10:50:00Z,26.0070,-85.6480,24.9,1111122 
NDBC,ioos:station:wmo:42003:1,2014-10-17T11:50:00Z,26.0070,-85.6480,24.9,1111122 
NDBC,ioos:station:wmo:42003:1,2014-10-17T12:50:00Z,26.0070,-85.6480,25.4,1111122 
NDBC,ioos:station:wmo:42003:1,2014-10-17T13:50:00Z,26.0070,-85.6480,25.4,1111122 
NDBC,ioos:station:wmo:42003:1,2014-10-17T14:50:00Z,26.0070,-85.6480,25.4,1111122 
NDBC,ioos:station:wmo:42003:1,2014-10-17T15:50:00Z,26.0070,-85.6480,25.4,1111122 
NDBC,ioos:station:wmo:42003:1,2014-10-17T16:50:00Z,26.0070,-85.6480,25.6,1111122 
NDBC,ioos:station:wmo:42003:1,2014-10-17T17:50:00Z,26.0070,-85.6480,25.5,1111122 
NDBC,ioos:station:wmo:42003:1,2014-10-17T18:50:00Z,26.0070,-85.6480,25.6,1111122 
NDBC,ioos:station:wmo:42003:1,2014-10-17T19:50:00Z,26.0070,-85.6480,25.7,1111122 
NDBC,ioos:station:wmo:42003:1,2014-10-17T20:50:00Z,26.0070,-85.6480,25.6,1111122 
NDBC,ioos:station:wmo:42003:1,2014-10-17T21:50:00Z,26.0070,-85.6480,25.5,1111122 
NDBC,ioos:station:wmo:42003:1,2014-10-17T22:50:00Z,26.0070,-85.6480,25.5,1111122 
NDBC,ioos:station:wmo:42003:1,2014-10-17T23:50:00Z,26.0070,-85.6480,25.5,1111122 
NDBC,ioos:station:wmo:42003:1,2014-10-18T00:50:00Z,26.0070,-85.6480,25.4,1111122 
NDBC,ioos:station:wmo:42003:1,2014-10-18T01:50:00Z,26.0070,-85.6480,25.6,1111122 
NDBC,ioos:station:wmo:42003:1,2014-10-18T02:50:00Z,26.0070,-85.6480,25.7,1111122 
NDBC,ioos:station:wmo:42003:1,2014-10-18T03:50:00Z,26.0070,-85.6480,25.9,1111122 
NDBC,ioos:station:wmo:42003:1,2014-10-18T04:50:00Z,26.0070,-85.6480,25.9,1111122 
NDBC,ioos:station:wmo:42003:1,2014-10-18T05:50:00Z,26.0070,-85.6480,25.8,1111122 
NDBC,ioos:station:wmo:42003:1,2014-10-18T06:50:00Z,26.0070,-85.6480,25.9,1111122 
NDBC,ioos:station:wmo:42003:1,2014-10-18T07:50:00Z,26.0070,-85.6480,25.8,1111122 
NDBC,ioos:station:wmo:42003:1,2014-10-18T08:50:00Z,26.0070,-85.6480,25.9,1111122 
NDBC,ioos:station:wmo:42003:1,2014-10-18T09:50:00Z,26.0070,-85.6480,25.8,1111122 
NDBC,ioos:station:wmo:42003:1,2014-10-18T10:50:00Z,26.0070,-85.6480,25.8,1111122 
NDBC,ioos:station:wmo:42003:1,2014-10-18T11:50:00Z,26.0070,-85.6480,25.5,1111122 
NDBC,ioos:station:wmo:42003:1,2014-10-18T12:50:00Z,26.0070,-85.6480,25.5,1111122 
NDBC,ioos:station:wmo:42003:1,2014-10-18T13:50:00Z,26.0070,-85.6480,25.4,1111122 
NDBC,ioos:station:wmo:42003:1,2014-10-18T14:50:00Z,26.0070,-85.6480,25.5,1111122 
NDBC,ioos:station:wmo:42003:1,2014-10-18T15:50:00Z,26.0070,-85.6480,25.6,1111122 
NDBC,ioos:station:wmo:42003:1,2014-10-18T16:50:00Z,26.0070,-85.6480,25.6,1111122 
NDBC,ioos:station:wmo:42003:1,2014-10-18T17:50:00Z,26.0070,-85.6480,25.5,1111122 
NDBC,ioos:station:wmo:42003:1,2014-10-18T18:50:00Z,26.0070,-85.6480,25.4,1111122 
NDBC,ioos:station:wmo:42003:1,2014-10-18T19:50:00Z,26.0070,-85.6480,25.5,1111122 
NDBC,ioos:station:wmo:42003:1,2014-10-18T20:50:00Z,26.0070,-85.6480,25.5,1111122 
NDBC,ioos:station:wmo:42003:1,2014-10-18T21:50:00Z,26.0070,-85.6480,25.6,1111122 
NDBC,ioos:station:wmo:42003:1,2014-10-18T22:50:00Z,26.0070,-85.6480,25.6,1111122 
NDBC,ioos:station:wmo:42003:1,2014-10-18T23:50:00Z,26.0070,-85.6480,25.6,1111122 
NDBC,ioos:station:wmo:42003:1,2014-10-19T00:50:00Z,26.0070,-85.6480,25.6,1111122 
NDBC,ioos:station:wmo:42003:1,2014-10-19T01:50:00Z,26.0070,-85.6480,25.6,1111122 
NDBC,ioos:station:wmo:42003:1,2014-10-19T02:50:00Z,26.0070,-85.6480,25.6,1111122 
NDBC,ioos:station:wmo:42003:1,2014-10-19T03:50:00Z,26.0070,-85.6480,25.6,1111122 
NDBC,ioos:station:wmo:42003:1,2014-10-19T04:50:00Z,26.0070,-85.6480,25.6,1111122 
NDBC,ioos:station:wmo:42003:1,2014-10-19T06:50:00Z,26.0070,-85.6480,25.6,1111122 
NDBC,ioos:station:wmo:42003:1,2014-10-19T07:50:00Z,26.0070,-85.6480,25.6,1111122 
NDBC,ioos:station:wmo:42003:1,2014-10-19T08:50:00Z,26.0070,-85.6480,25.7,1111122 
NDBC,ioos:station:wmo:42003:1,2014-10-19T09:50:00Z,26.0070,-85.6480,25.7,1111122 
NDBC,ioos:station:wmo:42003:1,2014-10-19T10:50:00Z,26.0070,-85.6480,25.6,1111122 
NDBC,ioos:station:wmo:42003:1,2014-10-19T11:50:00Z,26.0070,-85.6480,25.9,1111122 
NDBC,ioos:station:wmo:42003:1,2014-10-19T12:50:00Z,26.0070,-85.6480,26.1,1111122 
NDBC,ioos:station:wmo:42003:1,2014-10-19T13:50:00Z,26.0070,-85.6480,26.1,1111122 
NDBC,ioos:station:wmo:42003:1,2014-10-19T14:50:00Z,26.0070,-85.6480,26.2,1111122 
NDBC,ioos:station:wmo:42003:1,2014-10-19T15:50:00Z,26.0070,-85.6480,26.3,1111122 
NDBC,ioos:station:wmo:42003:1,2014-10-19T16:50:00Z,26.0070,-85.6480,26.3,1111122 
NDBC,ioos:station:wmo:42003:1,2014-10-19T17:50:00Z,26.0070,-85.6480,26.2,1111122 
NDBC,ioos:station:wmo:42003:1,2014-10-19T18:50:00Z,26.0070,-85.6480,26.2,1111122 
NDBC,ioos:station:wmo:42003:1,2014-10-19T19:50:00Z,26.0070,-85.6480,26.2,1111122 
NDBC,ioos:station:wmo:42003:1,2014-10-19T20:50:00Z,26.0070,-85.6480,26.2,1111122 
NDBC,ioos:station:wmo:42003:1,2014-10-19T21:50:00Z,26.0070,-85.6480,26.3,1111122 
NDBC,ioos:station:wmo:42003:1,2014-10-19T22:50:00Z,26.0070,-85.6480,26.2,1111122 
NDBC,ioos:station:wmo:42003:1,2014-10-19T23:50:00Z,26.0070,-85.6480,26.2,1111122 
NDBC,ioos:station:wmo:42003:1,2014-10-20T00:50:00Z,26.0070,-85.6480,26.2,1111122 
NDBC,ioos:station:wmo:42003:1,2014-10-20T01:50:00Z,26.0070,-85.6480,26.3,1111122 
NDBC,ioos:station:wmo:42003:1,2014-10-20T02:50:00Z,26.0070,-85.6480,26.3,1111122 
NDBC,ioos:station:wmo:42003:1,2014-10-20T04:50:00Z,26.0070,-85.6480,26.5,1111122 
NDBC,ioos:station:wmo:42003:1,2014-10-20T06:50:00Z,26.0070,-85.6480,26.3,1111122 
NDBC,ioos:station:wmo:42003:1,2014-10-20T07:50:00Z,26.0070,-85.6480,26.2,1111122 
NDBC,ioos:station:wmo:42003:1,2014-10-20T08:50:00Z,26.0070,-85.6480,26.3,1111122 
NDBC,ioos:station:wmo:42003:1,2014-10-20T09:50:00Z,26.0070,-85.6480,26.3,1111122 
NDBC,ioos:station:wmo:42003:1,2014-10-20T10:50:00Z,26.0070,-85.6480,26.4,1111122 
NDBC,ioos:station:wmo:42003:1,2014-10-20T11:50:00Z,26.0070,-85.6480,26.4,1111122 
NDBC,ioos:station:wmo:42003:1,2014-10-20T12:50:00Z,26.0070,-85.6480,26.5,1111122 
NDBC,ioos:station:wmo:42003:1,2014-10-20T13:50:00Z,26.0070,-85.6480,26.7,1111122 
NDBC,ioos:station:wmo:42003:1,2014-10-20T14:50:00Z,26.0070,-85.6480,26.9,1111122 
NDBC,ioos:station:wmo:42003:1,2014-10-20T15:50:00Z,26.0070,-85.6480,27.0,1111122 
NDBC,ioos:station:wmo:42003:1,2014-10-20T16:50:00Z,26.0070,-85.6480,27.0,1111122 
NDBC,ioos:station:wmo:42003:1,2014-10-20T18:50:00Z,26.0070,-85.6480,27.3,1111122 
NDBC,ioos:station:wmo:42003:1,2014-10-20T19:50:00Z,26.0070,-85.6480,27.0,1111122 
NDBC,ioos:station:wmo:42003:1,2014-10-20T20:50:00Z,26.0070,-85.6480,27.0,1111122 
NDBC,ioos:station:wmo:42003:1,2014-10-20T21:50:00Z,26.0070,-85.6480,26.8,1111122 
NDBC,ioos:station:wmo:42003:1,2014-10-20T22:50:00Z,26.0070,-85.6480,26.9,1111122 
NDBC,ioos:station:wmo:42003:1,2014-10-20T23:50:00Z,26.0070,-85.6480,26.8,1111122 
NDBC,ioos:station:wmo:42003:1,2014-10-21T01:50:00Z,26.0070,-85.6480,26.9,1111122 
NDBC,ioos:station:wmo:42003:1,2014-10-21T02:50:00Z,26.0070,-85.6480,27.0,1111122 
NDBC,ioos:station:wmo:42003:1,2014-10-21T03:50:00Z,26.0070,-85.6480,27.0,1111122 
NDBC,ioos:station:wmo:42003:1,2014-10-21T04:50:00Z,26.0070,-85.6480,27.0,1111122 
NDBC,ioos:station:wmo:42003:1,2014-10-21T05:50:00Z,26.0070,-85.6480,26.8,1111122 
NDBC,ioos:station:wmo:42003:1,2014-10-21T06:50:00Z,26.0070,-85.6480,26.6,1111122 
NDBC,ioos:station:wmo:42003:1,2014-10-21T07:50:00Z,26.0070,-85.6480,26.5,1111122 
NDBC,ioos:station:wmo:42003:1,2014-10-21T08:50:00Z,26.0070,-85.6480,26.5,1111122 
NDBC,ioos:station:wmo:42003:1,2014-10-21T09:50:00Z,26.0070,-85.6480,26.5,1111122 
NDBC,ioos:station:wmo:42003:1,2014-10-21T10:50:00Z,26.0070,-85.6480,26.5,1111122 
NDBC,ioos:station:wmo:42003:1,2014-10-21T11:50:00Z,26.0070,-85.6480,26.6,1111122 
NDBC,ioos:station:wmo:42003:1,2014-10-21T12:50:00Z,26.0070,-85.6480,26.7,1111122 
NDBC,ioos:station:wmo:42003:1,2014-10-21T13:50:00Z,26.0070,-85.6480,26.8,1111122 
NDBC,ioos:station:wmo:42003:1,2014-10-21T14:50:00Z,26.0070,-85.6480,27.0,1111122 
NDBC,ioos:station:wmo:42003:1,2014-10-21T15:50:00Z,26.0070,-85.6480,27.1,1111122 
NDBC,ioos:station:wmo:42003:1,2014-10-21T16:50:00Z,26.0070,-85.6480,27.1,1111122 
NDBC,ioos:station:wmo:42003:1,2014-10-21T17:50:00Z,26.0070,-85.6480,26.8,1111122 
NDBC,ioos:station:wmo:42003:1,2014-10-21T18:50:00Z,26.0070,-85.6480,26.9,1111122 
NDBC,ioos:station:wmo:42003:1,2014-10-21T19:50:00Z,26.0070,-85.6480,23.9,1111122 
NDBC,ioos:station:wmo:42003:1,2014-10-21T20:50:00Z,26.0070,-85.6480,25.7,1111122 
NDBC,ioos:station:wmo:42003:1,2014-10-21T21:50:00Z,26.0070,-85.6480,25.7,1111122 
NDBC,ioos:station:wmo:42003:1,2014-10-21T22:50:00Z,26.0070,-85.6480,25.6,1111122 
NDBC,ioos:station:wmo:42003:1,2014-10-21T23:50:00Z,26.0070,-85.6480,25.7,1111122 
NDBC,ioos:station:wmo:42003:1,2014-10-22T00:50:00Z,26.0070,-85.6480,26.4,1111122 
NDBC,ioos:station:wmo:42003:1,2014-10-22T01:50:00Z,26.0070,-85.6480,26.5,1111122 
NDBC,ioos:station:wmo:42003:1,2014-10-22T02:50:00Z,26.0070,-85.6480,26.9,1111122 
NDBC,ioos:station:wmo:42003:1,2014-10-22T03:50:00Z,26.0070,-85.6480,26.9,1111122 
NDBC,ioos:station:wmo:42003:1,2014-10-22T04:50:00Z,26.0070,-85.6480,26.7,1111122 
NDBC,ioos:station:wmo:42003:1,2014-10-22T05:50:00Z,26.0070,-85.6480,26.7,1111122 
NDBC,ioos:station:wmo:42003:1,2014-10-22T06:50:00Z,26.0070,-85.6480,26.7,1111122 
NDBC,ioos:station:wmo:42003:1,2014-10-22T07:50:00Z,26.0070,-85.6480,26.5,1111122 
NDBC,ioos:station:wmo:42003:1,2014-10-22T08:50:00Z,26.0070,-85.6480,26.6,1111122 
NDBC,ioos:station:wmo:42003:1,2014-10-22T09:50:00Z,26.0070,-85.6480,26.4,1111122 
NDBC,ioos:station:wmo:42003:1,2014-10-22T10:50:00Z,26.0070,-85.6480,26.7,1111122 
NDBC,ioos:station:wmo:42003:1,2014-10-22T11:50:00Z,26.0070,-85.6480,26.9,1111122 
NDBC,ioos:station:wmo:42003:1,2014-10-22T12:50:00Z,26.0070,-85.6480,27.0,1111122 
NDBC,ioos:station:wmo:42003:1,2014-10-22T13:50:00Z,26.0070,-85.6480,26.1,1111122 
NDBC,ioos:station:wmo:42003:1,2014-10-22T14:50:00Z,26.0070,-85.6480,26.6,1111122 
NDBC,ioos:station:wmo:42003:1,2014-10-22T15:50:00Z,26.0070,-85.6480,26.6,1111122 
NDBC,ioos:station:wmo:42003:1,2014-10-22T16:50:00Z,26.0070,-85.6480,26.6,1111122 
NDBC,ioos:station:wmo:42003:1,2014-10-22T17:50:00Z,26.0070,-85.6480,26.6,1111122 
NDBC,ioos:station:wmo:42003:1,2014-10-22T18:50:00Z,26.0070,-85.6480,25.4,1111122 
NDBC,ioos:station:wmo:42003:1,2014-10-22T19:50:00Z,26.0070,-85.6480,24.9,1111122 
NDBC,ioos:station:wmo:42003:1,2014-10-22T20:50:00Z,26.0070,-85.6480,23.6,1111122 
NDBC,ioos:station:wmo:42003:1,2014-10-22T21:50:00Z,26.0070,-85.6480,26.2,1111122 
NDBC,ioos:station:wmo:42003:1,2014-10-22T22:50:00Z,26.0070,-85.6480,24.4,1111122 
NDBC,ioos:station:wmo:42003:1,2014-10-22T23:50:00Z,26.0070,-85.6480,26.5,1111122 
NDBC,ioos:station:wmo:42003:1,2014-10-23T00:50:00Z,26.0070,-85.6480,26.7,1111122 
NDBC,ioos:station:wmo:42003:1,2014-10-23T01:50:00Z,26.0070,-85.6480,26.6,1111122 
NDBC,ioos:station:wmo:42003:1,2014-10-23T02:50:00Z,26.0070,-85.6480,26.6,1111122 
NDBC,ioos:station:wmo:42003:1,2014-10-23T03:50:00Z,26.0070,-85.6480,26.5,1111122 
NDBC,ioos:station:wmo:42003:1,2014-10-23T04:50:00Z,26.0070,-85.6480,25.5,1111122 
NDBC,ioos:station:wmo:42003:1,2014-10-23T06:50:00Z,26.0070,-85.6480,26.0,1111122 
NDBC,ioos:station:wmo:42003:1,2014-10-23T07:50:00Z,26.0070,-85.6480,26.0,1111122 
NDBC,ioos:station:wmo:42003:1,2014-10-23T08:50:00Z,26.0070,-85.6480,26.1,1111122 
NDBC,ioos:station:wmo:42003:1,2014-10-23T09:50:00Z,26.0070,-85.6480,26.3,1111122 
NDBC,ioos:station:wmo:42003:1,2014-10-23T10:50:00Z,26.0070,-85.6480,26.2,1111122 
NDBC,ioos:station:wmo:42003:1,2014-10-23T11:50:00Z,26.0070,-85.6480,26.3,1111122 
NDBC,ioos:station:wmo:42003:1,2014-10-23T12:50:00Z,26.0070,-85.6480,26.1,1111122 
NDBC,ioos:station:wmo:42003:1,2014-10-23T13:50:00Z,26.0070,-85.6480,26.2,1111122 
NDBC,ioos:station:wmo:42003:1,2014-10-23T14:50:00Z,26.0070,-85.6480,26.0,1111122 
NDBC,ioos:station:wmo:42003:1,2014-10-23T15:50:00Z,26.0070,-85.6480,25.9,1111122 
NDBC,ioos:station:wmo:42003:1,2014-10-23T16:50:00Z,26.0070,-85.6480,25.9,1111122 
NDBC,ioos:station:wmo:42003:1,2014-10-23T18:50:00Z,26.0070,-85.6480,25.8,1111122 
NDBC,ioos:station:wmo:42003:1,2014-10-23T19:50:00Z,26.0070,-85.6480,25.8,1111122 
NDBC,ioos:station:wmo:42003:1,2014-10-23T20:50:00Z,26.0070,-85.6480,25.8,1111122 
NDBC,ioos:station:wmo:42003:1,2014-10-23T21:50:00Z,26.0070,-85.6480,25.8,1111122 
NDBC,ioos:station:wmo:42003:1,2014-10-23T22:50:00Z,26.0070,-85.6480,25.7,1111122 
NDBC,ioos:station:wmo:42003:1,2014-10-23T23:50:00Z,26.0070,-85.6480,25.8,1111122 
NDBC,ioos:station:wmo:42003:1,2014-10-24T00:50:00Z,26.0070,-85.6480,25.7,1111122 
NDBC,ioos:station:wmo:42003:1,2014-10-24T01:50:00Z,26.0070,-85.6480,25.5,1111122 
NDBC,ioos:station:wmo:42003:1,2014-10-24T02:50:00Z,26.0070,-85.6480,25.4,1111122 
NDBC,ioos:station:wmo:42003:1,2014-10-24T03:50:00Z,26.0070,-85.6480,25.3,1111122 
NDBC,ioos:station:wmo:42003:1,2014-10-24T04:50:00Z,26.0070,-85.6480,25.2,1111122 
NDBC,ioos:station:wmo:42003:1,2014-10-24T05:50:00Z,26.0070,-85.6480,24.9,1111122 
NDBC,ioos:station:wmo:42003:1,2014-10-24T06:50:00Z,26.0070,-85.6480,24.6,1111122 
NDBC,ioos:station:wmo:42003:1,2014-10-24T07:50:00Z,26.0070,-85.6480,24.7,1111122 
NDBC,ioos:station:wmo:42003:1,2014-10-24T08:50:00Z,26.0070,-85.6480,24.9,1111122 
NDBC,ioos:station:wmo:42003:1,2014-10-24T09:50:00Z,26.0070,-85.6480,25.1,1111122 
NDBC,ioos:station:wmo:42003:1,2014-10-24T10:50:00Z,26.0070,-85.6480,25.5,1111122 
NDBC,ioos:station:wmo:42003:1,2014-10-24T11:50:00Z,26.0070,-85.6480,25.7,1111122 
NDBC,ioos:station:wmo:42003:1,2014-10-24T12:50:00Z,26.0070,-85.6480,25.9,1111122 
NDBC,ioos:station:wmo:42003:1,2014-10-24T13:50:00Z,26.0070,-85.6480,25.8,1111122 
NDBC,ioos:station:wmo:42003:1,2014-10-24T14:50:00Z,26.0070,-85.6480,25.8,1111122 
NDBC,ioos:station:wmo:42003:1,2014-10-24T15:50:00Z,26.0070,-85.6480,25.7,1111122 
NDBC,ioos:station:wmo:42003:1,2014-10-24T16:50:00Z,26.0070,-85.6480,25.6,1111122 
NDBC,ioos:station:wmo:42003:1,2014-10-24T17:50:00Z,26.0070,-85.6480,25.5,1111122 
NDBC,ioos:station:wmo:42003:1,2014-10-24T18:50:00Z,26.0070,-85.6480,25.3,1111122 
NDBC,ioos:station:wmo:42003:1,2014-10-24T19:50:00Z,26.0070,-85.6480,25.2,1111122 
NDBC,ioos:station:wmo:42003:1,2014-10-24T20:50:00Z,26.0070,-85.6480,25.2,1111122 
NDBC,ioos:station:wmo:42003:1,2014-10-24T21:50:00Z,26.0070,-85.6480,25.2,1111122 
NDBC,ioos:station:wmo:42003:1,2014-10-24T22:50:00Z,26.0070,-85.6480,25.1,1111122 
NDBC,ioos:station:wmo:42003:1,2014-10-24T23:50:00Z,26.0070,-85.6480,25.0,1111122 
NDBC,ioos:station:wmo:42003:1,2014-10-25T00:50:00Z,26.0070,-85.6480,24.9,1111122 
NDBC,ioos:station:wmo:42003:1,2014-10-25T01:50:00Z,26.0070,-85.6480,25.1,1111122 
NDBC,ioos:station:wmo:42003:1,2014-10-25T02:50:00Z,26.0070,-85.6480,24.9,1111122 
NDBC,ioos:station:wmo:42003:1,2014-10-25T03:50:00Z,26.0070,-85.6480,24.6,1111122 
NDBC,ioos:station:wmo:42003:1,2014-10-25T04:50:00Z,26.0070,-85.6480,24.5,1111122 
NDBC,ioos:station:wmo:42003:1,2014-10-25T05:50:00Z,26.0070,-85.6480,24.0,1111122 
NDBC,ioos:station:wmo:42003:1,2014-10-25T06:50:00Z,26.0070,-85.6480,23.8,1111122 
NDBC,ioos:station:wmo:42003:1,2014-10-25T07:50:00Z,26.0070,-85.6480,23.5,1111122 
NDBC,ioos:station:wmo:42003:1,2014-10-25T08:50:00Z,26.0070,-85.6480,23.7,1111122 
NDBC,ioos:station:wmo:42003:1,2014-10-25T09:50:00Z,26.0070,-85.6480,24.0,1111122 
NDBC,ioos:station:wmo:42003:1,2014-10-25T10:50:00Z,26.0070,-85.6480,24.3,1111122 
NDBC,ioos:station:wmo:42003:1,2014-10-25T11:50:00Z,26.0070,-85.6480,24.5,1111122 
NDBC,ioos:station:wmo:42003:1,2014-10-25T12:50:00Z,26.0070,-85.6480,24.7,1111122 
NDBC,ioos:station:wmo:42003:1,2014-10-25T13:50:00Z,26.0070,-85.6480,24.6,1111122 
NDBC,ioos:station:wmo:42003:1,2014-10-25T14:50:00Z,26.0070,-85.6480,24.7,1111122 
NDBC,ioos:station:wmo:42003:1,2014-10-25T15:50:00Z,26.0070,-85.6480,24.7,1111122 
NDBC,ioos:station:wmo:42003:1,2014-10-25T16:50:00Z,26.0070,-85.6480,24.5,1111122 
NDBC,ioos:station:wmo:42003:1,2014-10-25T17:50:00Z,26.0070,-85.6480,24.4,1111122 
NDBC,ioos:station:wmo:42003:1,2014-10-25T18:50:00Z,26.0070,-85.6480,24.4,1111122 
NDBC,ioos:station:wmo:42003:1,2014-10-25T19:50:00Z,26.0070,-85.6480,24.5,1111122 
NDBC,ioos:station:wmo:42003:1,2014-10-25T20:50:00Z,26.0070,-85.6480,24.8,1111122 
NDBC,ioos:station:wmo:42003:1,2014-10-25T21:50:00Z,26.0070,-85.6480,24.9,1111122 
NDBC,ioos:station:wmo:42003:1,2014-10-25T22:50:00Z,26.0070,-85.6480,24.9,1111122 
NDBC,ioos:station:wmo:42003:1,2014-10-25T23:50:00Z,26.0070,-85.6480,25.0,1111122 
NDBC,ioos:station:wmo:42003:1,2014-10-26T00:50:00Z,26.0070,-85.6480,24.9,1111122 
NDBC,ioos:station:wmo:42003:1,2014-10-26T01:50:00Z,26.0070,-85.6480,24.8,1111122 
NDBC,ioos:station:wmo:42003:1,2014-10-26T02:50:00Z,26.0070,-85.6480,24.6,1111122 
NDBC,ioos:station:wmo:42003:1,2014-10-26T03:50:00Z,26.0070,-85.6480,24.5,1111122 
NDBC,ioos:station:wmo:42003:1,2014-10-26T04:50:00Z,26.0070,-85.6480,24.5,1111122 
NDBC,ioos:station:wmo:42003:1,2014-10-26T05:50:00Z,26.0070,-85.6480,24.2,1111122 
NDBC,ioos:station:wmo:42003:1,2014-10-26T06:50:00Z,26.0070,-85.6480,24.1,1111122 
NDBC,ioos:station:wmo:42003:1,2014-10-26T07:50:00Z,26.0070,-85.6480,24.1,1111122 
NDBC,ioos:station:wmo:42003:1,2014-10-26T08:50:00Z,26.0070,-85.6480,24.1,1111122 
NDBC,ioos:station:wmo:42003:1,2014-10-26T09:50:00Z,26.0070,-85.6480,24.1,1111122 
NDBC,ioos:station:wmo:42003:1,2014-10-26T10:50:00Z,26.0070,-85.6480,24.0,1111122 
NDBC,ioos:station:wmo:42003:1,2014-10-26T11:50:00Z,26.0070,-85.6480,24.1,1111122 
NDBC,ioos:station:wmo:42003:1,2014-10-26T12:50:00Z,26.0070,-85.6480,24.3,1111122 
NDBC,ioos:station:wmo:42003:1,2014-10-26T13:50:00Z,26.0070,-85.6480,24.3,1111122 
NDBC,ioos:station:wmo:42003:1,2014-10-26T14:50:00Z,26.0070,-85.6480,24.6,1111122 
NDBC,ioos:station:wmo:42003:1,2014-10-26T15:50:00Z,26.0070,-85.6480,24.6,1111122 
NDBC,ioos:station:wmo:42003:1,2014-10-26T16:50:00Z,26.0070,-85.6480,24.7,1111122 
NDBC,ioos:station:wmo:42003:1,2014-10-26T17:50:00Z,26.0070,-85.6480,24.9,1111122 
NDBC,ioos:station:wmo:42003:1,2014-10-26T18:50:00Z,26.0070,-85.6480,24.9,1111122 
NDBC,ioos:station:wmo:42003:1,2014-10-26T19:50:00Z,26.0070,-85.6480,24.9,1111122 
NDBC,ioos:station:wmo:42003:1,2014-10-26T20:50:00Z,26.0070,-85.6480,25.0,1111122 
NDBC,ioos:station:wmo:42003:1,2014-10-26T21:50:00Z,26.0070,-85.6480,25.0,1111122 
NDBC,ioos:station:wmo:42003:1,2014-10-26T22:50:00Z,26.0070,-85.6480,25.0,1111122 
NDBC,ioos:station:wmo:42003:1,2014-10-26T23:50:00Z,26.0070,-85.6480,24.9,1111122 
NDBC,ioos:station:wmo:42003:1,2014-10-27T00:50:00Z,26.0070,-85.6480,24.8,1111122 
NDBC,ioos:station:wmo:42003:1,2014-10-27T01:50:00Z,26.0070,-85.6480,24.8,1111122 
NDBC,ioos:station:wmo:42003:1,2014-10-27T02:50:00Z,26.0070,-85.6480,24.8,1111122 
NDBC,ioos:station:wmo:42003:1,2014-10-27T03:50:00Z,26.0070,-85.6480,24.8,1111122 
NDBC,ioos:station:wmo:42003:1,2014-10-27T04:50:00Z,26.0070,-85.6480,24.7,1111122 
NDBC,ioos:station:wmo:42003:1,2014-10-27T05:50:00Z,26.0070,-85.6480,24.7,1111122 
NDBC,ioos:station:wmo:42003:1,2014-10-27T06:50:00Z,26.0070,-85.6480,24.7,1111122 
NDBC,ioos:station:wmo:42003:1,2014-10-27T07:50:00Z,26.0070,-85.6480,24.6,1111122 
NDBC,ioos:station:wmo:42003:1,2014-10-27T08:50:00Z,26.0070,-85.6480,24.6,1111122 
NDBC,ioos:station:wmo:42003:1,2014-10-27T09:50:00Z,26.0070,-85.6480,24.7,1111122 
NDBC,ioos:station:wmo:42003:1,2014-10-27T10:50:00Z,26.0070,-85.6480,24.7,1111122 
NDBC,ioos:station:wmo:42003:1,2014-10-27T11:50:00Z,26.0070,-85.6480,24.7,1111122 
NDBC,ioos:station:wmo:42003:1,2014-10-27T12:50:00Z,26.0070,-85.6480,25.0,1111122 
NDBC,ioos:station:wmo:42003:1,2014-10-27T13:50:00Z,26.0070,-85.6480,25.2,1111122 
NDBC,ioos:station:wmo:42003:1,2014-10-27T14:50:00Z,26.0070,-85.6480,25.4,1111122 
NDBC,ioos:station:wmo:42003:1,2014-10-27T15:50:00Z,26.0070,-85.6480,25.5,1111122 
NDBC,ioos:station:wmo:42003:1,2014-10-27T16:50:00Z,26.0070,-85.6480,25.4,1111122 
NDBC,ioos:station:wmo:42003:1,2014-10-27T17:50:00Z,26.0070,-85.6480,25.4,1111122 
NDBC,ioos:station:wmo:42003:1,2014-10-27T18:50:00Z,26.0070,-85.6480,25.4,1111122 
NDBC,ioos:station:wmo:42003:1,2014-10-27T19:50:00Z,26.0070,-85.6480,25.5,1111122 
NDBC,ioos:station:wmo:42003:1,2014-10-27T20:50:00Z,26.0070,-85.6480,25.7,1111122 
NDBC,ioos:station:wmo:42003:1,2014-10-27T21:50:00Z,26.0070,-85.6480,26.2,1111122 
NDBC,ioos:station:wmo:42003:1,2014-10-27T22:50:00Z,26.0070,-85.6480,26.3,1111122 
NDBC,ioos:station:wmo:42003:1,2014-10-27T23:50:00Z,26.0070,-85.6480,26.2,1111122 
NDBC,ioos:station:wmo:42003:1,2014-10-28T00:50:00Z,26.0070,-85.6480,26.2,1111122 
NDBC,ioos:station:wmo:42003:1,2014-10-28T01:50:00Z,26.0070,-85.6480,26.1,1111122 
NDBC,ioos:station:wmo:42003:1,2014-10-28T02:50:00Z,26.0070,-85.6480,25.9,1111122 
NDBC,ioos:station:wmo:42003:1,2014-10-28T03:50:00Z,26.0070,-85.6480,25.8,1111122 
NDBC,ioos:station:wmo:42003:1,2014-10-28T04:50:00Z,26.0070,-85.6480,25.8,1111122 
NDBC,ioos:station:wmo:42003:1,2014-10-28T05:50:00Z,26.0070,-85.6480,25.7,1111122 
NDBC,ioos:station:wmo:42003:1,2014-10-28T06:50:00Z,26.0070,-85.6480,25.7,1111122 
NDBC,ioos:station:wmo:42003:1,2014-10-28T07:50:00Z,26.0070,-85.6480,25.6,1111122 
NDBC,ioos:station:wmo:42003:1,2014-10-28T08:50:00Z,26.0070,-85.6480,25.6,1111122 